Location: Pitton
(51.0667°N, 1.7000°W)
Time: 13:48:55
(UTC+00:00)

Cosmos 405 Rocket - Pass Details

Date: 17 September 2019
Orbit: 491 x 554 km, 81.3° (Epoch: 21 October)

Event Time Altitude Azimuth Distance (km) Brightness Sun altitude
Exits shadow 19:39:54 23° 127° (SE) 1,102 3.8 -13.5°
Maximum altitude 19:41:10 28° 93° (E) 956 3.5 -13.7°
Drops below altitude 10° 19:44:23 10° 33° (NNE) 1,703 5.2 -14.1°
Sets 19:46:42 0° 22° (NNE) 2,598 6.3 -14.5°
